STARLINK-4272, 52866

Orbit data source: Space-Track

STARLINK-4272, 52866 is a payload satellite owned by SpaceX/Seattle (US) in LEO that was launched on Fri, 17 Jun 2022 UTC via an FALCON 9 launch vehicle from the Air Force Eastern Test Range (AFETR). Payload-class satellites include a variety of spacecraft equipped with specific instruments for various scientific and technological missions. These include communications satellites like Starlink; space stations such as the ISS; scientific satellites like the Hubble; Earth observation satellites from companies like Planet Labs, Umbra, and HawkEye 360; GPS; miniature CubeSats for education and research; and military/defense satellites.

Loading next visibility...
Identifier
52866, 2022-062AN
Orbit
LEO
Country
Flag of USUS
Related business
Manufacturer
SpaceX/Seattle
Mission
Operational Commercial Communications
Bus & Motor
STARLINK, Unknown motor
Mass
297 kg wet, ~275 kg dry
Launch date (UTC)
2022-06-17 (4 years ago)
Launch vehicle
FALCON 9
Launch site
Air Force Eastern Test Range (AFETR)
Object type
Payload
Rocket body
Debris
Shape & HBR
Box + 1 Pan, 10.1 m
Radar Cross Section
13.562 m², Large (>1 m²)

Expand to show TLE details & history
Last TLE update: 3 days ago

TLE from 3 days ago
0 STARLINK-4272
1 52866U 22062AN  26170.60617532 -.00000779  00000-0 -30887-4 0  9990
2 52866  53.1601 286.4873 0001181  89.5620 270.5507 15.08835315221318
Epoch: 2026-06-19T14:32Z
TLE epoch observation values (Epoch: 2026-06-19T14:32:53.547Z)
Latitude
-0.00001°
Longitude
160.43144°
Altitude
540.641 km
Speed
7.593 km/s
True Right ascension
19h 05m 56s
True Declination
0° 00' 00"
Sunlit
Object was in full shadow at epoch
Visualization orbit readout
Latitude
Unknown
Longitude
Unknown
Altitude
Unknown
Speed
Unknown
Apparent Right ascension
Unknown
Apparent Declination
Unknown
Sunlit
N/A
Visualization observer readout
Local Sidereal Time
21:36:50
Azimuth
Unknown
Elevation
Unknown
Doppler factor
Unknown
Orbital elements
Apogee altitude
540.829 km
Perigee altitude
539.195 km
Semi-major axis
6,918.149 km
Eccentricity
0.00012
Inclination
53.1601°
RAAN
286.4873°
Arg. of periapsis
89.562°
True anomaly
270.53717°
Mean anomaly
270.5507°
Eccentric anomaly
270.54393°
Mean motion
3.77188 °/min
Orbital period
95.44 mins
BSTAR
-0.000030887
Loading maneuver chart data...
Computing Atmospheric mass density...
Loading historical data...
Loading historical data...
Loading historical data...
Loading historical data...
Loading historical data...
Loading historical data...
Loading historical data...

Documentation

Showing up to 5 results
|